Lid_Strength_Index
10 10 10 11 11 10 11 12 15 12 12 10 9 8 7 6 7 7 6 5 5 5 4 4 4 5 4 2 2 2 2 2 2 1 1 1 1 1 1 1 1 1 1 1
13 10 10 12 10 10 10 9 11 11 12 8 9 8 8 6 6 7 7 5 5 4 5 4 4 4 5 5 2 2 2 2 2 2 1 1 1 1 2 1 1 1 1 1
16 11 11 14 11 10 10 9 10 13 11 9 10 9 9 9 6 8 8 7 5 4 4 4 4 4 3 5 2 2 2 2 2 2 2 2 1 1 1 2 1 1 1 1
16 13 19 11 8 9 9 8 8 9 9 7 7 6 6 7 9 9 5 5 4 4 4 3 3 2 2 2 2 2 2 2 2 2 2 2 2 2 2 1 2 1 1 1
16 16 13 10 9 9 10 11 8 9 8 7 7 6 7 6 5 6 5 4 4 3 3 3 3 3 3 3 2 3 3 2 2 2 2 2 2 2 2 2 2 1 1 1
15 17 18 11 8 6 8 14 7 7 8 8 7 12 9 6 4 7 7 7 3 3 3 3 4 2 3 3 3 3 2 2 2 2 2 2 2 2 1 1 2 1 1 1
15 17 14 9 7 6 13 14 7 7 7 7 9 8 6 5 4 4 4 3 3 4 3 5 5 4 3 3 3 2 2 2 2 2 2 2 2 1 1 2 2 2 2 1
15 16 18 7 8 12 9 8 7 8 7 7 7 5 5 5 5 4 4 4 3 4 3 3 4 4 4 5 5 4 2 2 2 2 2 2 2 2 2 2 2 2 2 2
13 13 8 7 8 7 7 8 8 8 7 7 7 6 5 5 5 4 4 4 4 4 4 3 3 3 5 6 7 6 5 2 2 2 2 2 2 2 2 2 2 3 3 3
12 9 9 9 7 7 7 7 7 7 7 7 7 7 5 5 4 4 5 4 4 5 5 4 4 3 5 6 6 7 5 3 2 2 2 2 2 2 2 2 3 3 3 3
11 10 10 8 8 8 7 7 6 6 6 6 6 6 5 5 4 4 4 4 4 5 5 4 4 4 5 6 7 7 7 3 2 2 2 2 2 2 2 2 2 2 2 2
14 9 10 10 8 8 8 8 8 7 5 4 4 5 5 5 4 4 4 4 4 5 6 5 5 6 5 6 8 8 9 4 3 3 2 2 2 3 13 9 11 11 10 4
8 8 8 8 8 7 8 8 7 7 4 5 4 4 4 5 4 4 4 4 3 4 6 6 6 6 7 7 7 8 9 10 6 7 3 3 3 3 4 7 14 16 15 11
5 6 8 8 9 7 7 7 7 7 5 4 4 3 4 4 5 6 5 4 4 4 6 7 7 7 7 7 8 9 7 10 9 6 5 4 3 3 3 3 4 5 14 13
5 4 5 7 7 7 7 7 8 8 8 7 5 5 5 5 6 6 6 5 5 6 7 7 7 8 6 8 8 9 8 7 8 7 6 7 4 2 3 3 3 3 8 12
5 4 4 5 7 7 7 8 8 8 9 7 7 6 6 5 6 6 6 6 7 8 7 8 9 8 7 8 9 9 8 8 7 6 6 6 5 3 3 4 4 4 4 5
6 6 6 6 5 6 7 8 8 8 8 7 7 7 6 6 6 6 6 7 7 8 8 9 9 9 9 9 9 9 7 7 5 4 4 5 6 5 4 4 5 5 6 7
4 4 4 4 5 5 6 7 7 8 8 8 7 7 7 7 8 8 8 8 8 9 9 9 10 10 10 10 10 10 9 9 9 7 7 8 9 8 8 8 8 8 7 9
3 3 3 3 3 4 4 6 7 7 7 8 8 8 8 8 7 8 8 8 9 10 10 9 9 11 11 10 11 11 10 11 11 11 11 11 11 11 11 9 10 10 10 11
4 3 3 3 3 3 4 4 4 7 6 7 7 8 9 8 8 8 9 10 9 9 8 10 10 11 12 12 12 14 13 13 13 12 13 14 13 14 14 14 13 13 13 13
4 3 3 3 3 3 3 3 3 4 6 6 7 8 8 8 9 9 10 11 10 9 9 10 11 11 11 12 12 14 14 15 15 15 15 15 15 15 15 15 15 16 15 15
3 3 3 3 3 3 3 3 3 3 4 5 6 6 7 8 8 8 9 10 9 8 9 10 10 10 11 11 13 14 14 15 15 16 16 16 16 16 16 16 16 15 15 16
3 3 3 3 3 3 2 3 3 3 4 4 4 5 6 6 7 9 10 9 9 8 9 10 10 10 10 12 12 13 14 14 15 15 15 16 15 16 16 16 16 16 15 15
3 3 3 3 3 3 4 3 3 2 2 3 4 4 5 6 6 6 7 8 8 9 9 9 9 9 10 11 12 13 12 13 13 14 15 15 15 16 16 16 16 16 15 16
3 3 3 3 3 3 3 3 2 2 2 3 3 4 3 4 5 6 6 7 8 9 11 8 8 9 10 11 12 12 13 13 12 13 13 14 14 15 15 15 15 15 16 16
3 3 3 3 3 2 2 2 3 3 2 3 3 3 3 3 3 4 5 5 7 8 10 10 10 11 11 11 11 11 12 13 13 13 13 13 13 14 14 14 14 14 14 15
3 3 3 3 2 2 2 2 3 3 2 2 3 2 2 3 3 4 3 5 6 7 8 9 10 10 11 11 12 12 11 11 12 12 12 13 13 14 14 14 14 14 14 14